Regional Weather Roundup
Issued by NWS Sioux Falls, SD

Home | Current Version | Previous Version | Text Only | Print | Product List | Glossary Off
Versions: 1 2 3 4 5 6 7 8 9 10 11 12 13 14 15 16 17 18 19 20 21 22 23 24 25 26 27 28 29 30 31 32 33 34 35 36 37 38 39 40 41 42 43 44 45 46 47 48 49 50

001
ASUS43 KFSD 210502
RWRFSD

WEATHER ROUNDUP FOR SE SOUTH DAKOTA/SW MINNESOTA/NW IOWA
NATIONAL WEATHER SERVICE SIOUX FALLS SD
1100 PM CST MON FEB 20 2017

NOTE: "FAIR" INDICATES FEW OR NO CLOUDS BELOW 12,000 FEET WITH NO
SIGNIFICANT WEATHER AND OR OBSTRUCTIONS TO VISIBILITY.


SDZ038>040-050-052>070-210600-
SOUTHEAST SOUTH DAKOTA

CITY           SKY/WX    TMP DP  RH WIND       PRES   REMARKS
BROOKINGS      CLEAR     34  33  96 S3        29.88R
CHAMBERLAIN    CLEAR     37  32  82 SE3       29.86R
HURON          CLEAR     33  33 100 SE5       29.85F WCI  29
MADISON        FAIR      36  36 100 CALM      29.89R
MITCHELL       CLEAR     38  35  89 S6        29.89R
SIOUX FALLS    CLEAR     33  32  96 CALM      29.90S
WINNER         FAIR      45  28  51 S7        29.86R
YANKTON        CLEAR     37  34  87 CALM      29.90S
$$

MNZ071-072-080-081-089-090-097-098-210600-
SOUTHWEST MINNESOTA

CITY           SKY/WX    TMP DP  RH WIND       PRES   REMARKS
FAIRMONT       CLEAR     43  39  86 W12       29.87R
JACKSON        CLEAR     37  36  93 W8        29.89R
LUVERNE        CLEAR     34  34 100 W6        29.90S WCI  29
MARSHALL       CLEAR     37  35  92 W10       29.87R
MONTEVIDEO     CLEAR     37  37 100 W6        29.87R
PIPESTONE      CLEAR     37  34  87 W7        29.88R
REDWOOD FALLS  CLEAR     39  36  89 W9        29.85R
TRACY          CLEAR     41  38  91 W6        29.87R
WINDOM         CLEAR     37  37 100 W8        29.88R
WORTHINGTON    CLEAR     39  37  92 W6        29.90R
$$

IAZ001>003-012>014-020>022-031-032-NEZ013-014-SDZ071-210600-
NORTHWEST IOWA

CITY           SKY/WX    TMP DP  RH WIND       PRES   REMARKS
CHEROKEE       CLEAR     37  37 100 CALM      29.92R
DENISON        CLEAR     41  39  93 CALM      29.91S
ESTHERVILLE    CLEAR     39  39 100 W9        29.88R
LE MARS        CLEAR     36  36 100 CALM      29.94R
SHELDON        CLEAR     36  36 100 CALM      29.90R
SIOUX CITY     CLEAR     40  38  93 CALM      29.94R
SPENCER        CLEAR     36  35  96 W12       29.90R
STORM LAKE     CLEAR     41  39  93 W6        29.90S
$$

ABBREVIATIONS USED IN REMARKS
   TC - TEMPERATURE IN CELSIUS
  WCI - WIND CHILL INDEX
   HX - HEAT INDEX
  VSB - VISIBILITY





USA.gov is the U.S. government's official web portal to all federal, state and local government web resources and services.